STARLINK-34443

Satellite information

Favourite Embed

Satellite Type and Status

PAYLOADIN ORBIT

Key statistics

Satellite STARLINK-34443 at a glance.

Uptime

188

Days in orbit

Revolutions

≈ 15.0

Per day

Orbit

LEO

Low Earth Orbit

Inclination

70.0

Latest

Satellite identification and parameters

Extended collection of information and parameters for STARLINK-34443.

Object identification

Identified? True

Debris? False

Object name: STARLINK-34443

International designator: 2025-123F

Object number (NORAD): 64296

Object ID (CCSDS): 64296

Country: UNITED STATES OF AMERICA (US)

Current information (Y/N): Y

RCS size: LARGE

Orbital parameters

Period: 96.107 minutes

Inclination: 70.0012 deg

SMA: 6950.188 km

Apoapsis: 574.482 km

Periapsis: 569.624 km

RAAN: 54.6959 deg

Eccentricy: 0.00034949

Argument of periapsis: 273.3751 deg

Mean anomaly: 92.8851 deg

Mean motion: 14.98331469 rev/day

Mean motion (dot): -0.00029389 rev/day2

B* drag term: -0.0024654204 1/REarth

Two-line elements (TLE)

Creation date: Dec. 12, 2025, 10:14 a.m.

Reference frame: TEME

Reference center: EARTH

Epoch: Dec. 12, 2025, 8 a.m. UTC

TLE line 0: 0 STARLINK-34443

TLE line 1: 1 64296U 25123F 25346.33349537 -.00029389 00000-0 -24654-2 0 9993

TLE line 2: 2 64296 70.0012 54.6959 0003495 273.3751 92.8851 14.98331469 5631

Live tracking on map

Real-time ground track for satellite STARLINK-34443.

In-orbit conjunctions

There are no conjunctions computed for STARLINK-34443, at the moment. Check back to stay up to date, as we update our databases every day.

Go to all conjunctions

Associated space launch

A batch of 26 satellites for the Starlink mega-constellation - SpaceX's project for space-based Internet communication system.

STARLINK-34443 was lifted into orbit during the mission ‘Falcon 9 Block 5 | Starlink Group 15-8’, on board a Falcon 9 space rocket.

The launch took place on June 8, 2025, 2:20 p.m. from Space Launch Complex 4E.

For more information about the launch, click the button.

Launch to space Falcon 9 Block 5 | Starlink Group 15-8
Falcon 9 Block 5 | Starlink Group 15-8

Agency: SpaceX

Status: Launch Successful

Launch date: June 8, 2025, 2:20 p.m. UTC

Rocket: Falcon 9

Launch pad: Space Launch Complex 4E

Location: Vandenberg SFB, CA, USA

...

Latest news about this satellite

News about space launch
Live coverage: SpaceX to launch 26 Starlink satellites on Falcon 9 rocket from Vandenberg SFB

The mission, dubbed Starlink 15-8, will be SpaceX’s 70th Falcon 9 launch of the year. It’s targeting a liftoff from pad 4 East at 6:34 a.m. PDT (9:34 a.m. EDT, 1334 UTC).

News about space launch
Launch Roundup: Falcon 9 to launch crewed mission, Rocket Lab to launch 65th Electron

SpaceX continues to dominate the launch manifest with five missions this week, including a crewed… The post Launch Roundup: Falcon 9 to launch crewed mission, Rocket Lab to launch 65th Electron appeared first on NASASpaceFlight.com.


Newsletter sign-up

Weekly statistics, charts and insights to help you stay on top of the space industry.